{"data":{"norad_id":66557,"epoch":"2026-09-20T06:31:26.444640Z","epoch_age_seconds":110094,"freshness":"FRESH","line1":"1 66557U 25268A   26263.27183385  .00005764  00000+0  21881-3 0  9992","line2":"2 66557  43.0006 328.5943 0001065 254.2811 105.7923 15.27580897 47711","mean_motion":15.27580897,"eccentricity":0.0001065,"inclination_deg":43.0006,"raan_deg":328.5943,"arg_perigee_deg":254.2811,"mean_anomaly_deg":105.7923,"bstar":0.00021881,"rev_number":4771,"period_min":94.266693359939,"perigee_km":482.3156940671,"apogee_km":483.77712613345,"semimajor_km":6861.1834101003,"source":"CELESTRAK","updated_at":"2026-09-21T09:00:35.969379Z"}}